User: anonymous
Location: Unspecified
(0.0000°N, 0.0000°E)
Time: 13:58:39
(UTC+02:00)
Language:

Cosmos 773 Rocket - Orbit

View from above orbital plane
View from above orbital plane
View from above satellite
View from above satellite

Ground track
Ground track

The orbit data is extracted from the following two-line orbital elements,

1 08344U 75094B   14262.15891556  .00000236  00000-0  85106-4 0  5608
2 08344 074.0592 171.7185 0022757 322.0269 198.9288 14.38788531 41564
Epoch (UTC): 19 September 2014 03:48:50
Eccentricity: 0.0022757
inclination: 74.0592°
perigee height: 746 km
apogee height: 779 km
right ascension of ascending node: 171.7185°
argument of perigee: 322.0269°
revolutions per day: 14.38788531
mean anomaly at epoch: 198.9288°
orbit number at epoch: 4156

The dashed part of the orbit path shows where the satellite is in the earth's shadow,  

DLR